,,PA_Meas_PMT16A,,PR_Meas_QMR101_102,,RH_Meas_QMH101,,SR_Meas_QMS101,,TA_Meas_QMH101,,GenWind,,GenWind,
time,status,PA,status,PR,status,RH,status,SR,status,TA,status,DirAvg,status,SpdAvg,
2016-01-25, 16:16:04,VALID,916.846,VALID,0,VALID,72.9332,VALID,94.4408,VALID,23.1509,VALID,61,VALID,2.30195,
2016-01-25, 16:17:04,VALID,916.835,VALID,0,VALID,73.6346,VALID,92.2919,VALID,23.1704,VALID,77,VALID,1.41016,
2016-01-25, 16:18:04,VALID,916.874,VALID,0,VALID,73.2915,VALID,89.6059,VALID,23.1704,VALID,100,VALID,3.40117,
2016-01-25, 16:19:04,VALID,916.886,VALID,0,VALID,73.4669,VALID,89.391,VALID,23.1509,VALID,107,VALID,2.43828,
2016-01-25, 16:20:04,VALID,916.913,VALID,0,VALID,73.1238,VALID,92.0771,VALID,23.1119,VALID,110,VALID,3.52031,
2016-01-25, 16:21:04,VALID,916.904,VALID,0,VALID,74.5265,VALID,95.8375,VALID,23.0711,VALID,120,VALID,1.75117,
2016-01-25, 16:22:04,VALID,916.867,VALID,0,VALID,74.0157,VALID,96.697,VALID,23.0125,VALID,120,VALID,3.14648,
2016-01-25, 16:23:04,VALID,916.904,VALID,0,VALID,74.7628,VALID,94.2259,VALID,22.9948,VALID,83,VALID,2.96172,
2016-01-25, 16:24:04,VALID,916.892,VALID,0,VALID,74.9153,VALID,95.6226,VALID,22.9557,VALID,72,VALID,4.52539,
2016-01-25, 16:25:04,VALID,916.806,VALID,0,VALID,73.8861,VALID,97.1268,VALID,22.9362,VALID,61,VALID,3.425,
2016-01-25, 16:26:04,VALID,916.819,VALID,0,VALID,75.1364,VALID,96.0524,VALID,22.9557,VALID,61,VALID,3.88477,
2016-01-25, 16:27:04,VALID,916.831,VALID,0,VALID,73.6651,VALID,91.0027,VALID,22.9362,VALID,79,VALID,3.54063,
2016-01-25, 16:28:04,VALID,916.9,VALID,0,VALID,75.5938,VALID,84.8785,VALID,22.8972,VALID,99,VALID,3.66602,
2016-01-25, 16:29:04,VALID,916.895,VALID,0,VALID,74.5418,VALID,79.5065,VALID,22.8387,VALID,86,VALID,3.00195,
2016-01-25, 16:30:04,VALID,916.873,VALID,0,VALID,75.3041,VALID,76.713,VALID,22.7996,VALID,95,VALID,3.55938,
2016-01-25, 16:31:04,VALID,916.87,VALID,0,VALID,75.5557,VALID,74.779,VALID,22.7411,VALID,55,VALID,2.74648,
2016-01-25, 16:32:04,VALID,916.831,VALID,0,VALID,75.2965,VALID,72.4153,VALID,22.7411,VALID,126,VALID,2.47383,
2016-01-25, 16:33:04,VALID,916.781,VALID,0,VALID,75.7463,VALID,69.8367,VALID,22.7216,VALID,60,VALID,2.97773,
2016-01-25, 16:58:04,VALID,917.076,VALID,0,VALID,77.2023,VALID,113.243,VALID,22.5086,VALID,94,VALID,3.06211,
2016-01-25, 16:59:04,VALID,917.02,VALID,0,VALID,76.7754,VALID,119.582,VALID,22.5281,VALID,105,VALID,3.24688,
2016-01-25, 17:00:04,VALID,917.021,VALID,0,VALID,77.0651,VALID,124.309,VALID,22.5459,VALID,83,VALID,1.50391,
2016-01-25, 17:01:04,VALID,916.996,VALID,0,VALID,77.5378,VALID,124.847,VALID,22.585,VALID,62,VALID,2.73008,
2016-01-25, 17:02:04,VALID,916.975,VALID,0,VALID,77.1032,VALID,129.037,VALID,22.6452,VALID,81,VALID,2.35625,
2016-01-25, 17:03:04,VALID,916.957,VALID,0,VALID,77.3472,VALID,137.74,VALID,22.6647,VALID,47,VALID,2.51445,
2016-01-25, 17:04:04,VALID,916.981,VALID,0,VALID,77.0041,VALID,222.403,VALID,22.6843,VALID,95,VALID,1.93359,
2016-01-25, 17:05:04,VALID,916.959,VALID,0,VALID,77.2176,VALID,155.145,VALID,22.7428,VALID,56,VALID,1.34961,
2016-01-25, 17:06:04,VALID,916.94,VALID,0,VALID,76.7221,VALID,194.146,VALID,22.7818,VALID,101,VALID,2.36484,
2016-01-25, 17:07:04,VALID,916.985,VALID,0,VALID,76.9203,VALID,349.399,VALID,22.8404,VALID,99,VALID,0.316016,
2016-01-25, 17:08:04,VALID,916.971,VALID,0,VALID,75.2889,VALID,335.109,VALID,22.9202,VALID,150,VALID,3.21758,
2016-01-25, 17:09:04,VALID,916.98,VALID,0,VALID,76.4095,VALID,324.795,VALID,23.0356,VALID,101,VALID,2.25703,
2016-01-25, 17:10:04,VALID,916.928,VALID,0,VALID,74.9306,VALID,322.538,VALID,23.1722,VALID,66,VALID,2.33203,
2016-01-25, 17:11:04,VALID,916.96,VALID,0,VALID,74.4198,VALID,239.271,VALID,23.2485,VALID,135,VALID,1.61055,
2016-01-25, 17:12:04,VALID,916.988,VALID,0,VALID,74.0767,VALID,276.876,VALID,23.3088,VALID,123,VALID,3.325,
2016-01-25, 17:13:04,VALID,917.008,VALID,0,VALID,74.7095,VALID,260.867,VALID,23.3478,VALID,102,VALID,2.06602,
2016-01-25, 17:14:04,VALID,917.006,VALID,0,VALID,74.9077,VALID,147.409,VALID,23.3478,VALID,97,VALID,2.66367,
2016-01-25, 17:15:04,VALID,917.039,VALID,0,VALID,74.214,VALID,161.377,VALID,23.3301,VALID,113,VALID,2.57031,
2016-01-25, 17:16:04,VALID,916.964,VALID,0,VALID,75.2965,VALID,177.923,VALID,23.2502,VALID,69,VALID,2.11914,
2016-01-25, 17:17:04,VALID,916.993,VALID,0,VALID,75.0525,VALID,133.872,VALID,23.2698,VALID,118,VALID,1.38828,
2016-01-25, 17:18:04,VALID,916.999,VALID,0,VALID,75.3498,VALID,139.136,VALID,23.2094,VALID,107,VALID,1.34922,
2016-01-25, 17:19:04,VALID,916.932,VALID,0,VALID,74.8238,VALID,143.326,VALID,23.1917,VALID,93,VALID,2.58555,
2016-01-25, 17:20:04,VALID,916.984,VALID,0,VALID,75.7844,VALID,126.136,VALID,23.2112,VALID,75,VALID,1.54609,
2016-01-25, 17:21:04,VALID,917.013,VALID,0,VALID,75.7691,VALID,119.689,VALID,23.2307,VALID,89,VALID,2.07813,
2016-01-25, 17:22:04,VALID,916.979,VALID,0,VALID,75.3498,VALID,117.218,VALID,23.2112,VALID,51,VALID,1.63633,
2016-01-25, 17:23:04,VALID,917.002,VALID,0,VALID,75.205,VALID,115.714,VALID,23.1722,VALID,97,VALID,2.54648,
2016-01-25, 17:24:04,VALID,916.927,VALID,0,VALID,75.2889,VALID,120.012,VALID,23.1136,VALID,68,VALID,2.82773,
2016-01-25, 17:25:04,VALID,916.99,VALID,0,VALID,75.9292,VALID,126.351,VALID,23.0924,VALID,52,VALID,1.66562,
2016-01-25, 17:26:04,VALID,917.01,VALID,0,VALID,75.5709,VALID,126.673,VALID,23.0924,VALID,120,VALID,2.60195,
2016-01-25, 17:27:04,VALID,917.004,VALID,0,VALID,75.083,VALID,126.566,VALID,23.1509,VALID,122,VALID,0.954297,
2016-01-25, 17:28:04,VALID,916.975,VALID,0,VALID,75.9978,VALID,119.26,VALID,23.1314,VALID,128,VALID,2.21211,
2016-01-25, 17:29:04,VALID,916.962,VALID,0,VALID,75.2355,VALID,111.202,VALID,23.1119,VALID,163,VALID,2.21406,
2016-01-25, 17:30:04,VALID,917.017,VALID,0,VALID,75.7234,VALID,100.78,VALID,23.1331,VALID,128,VALID,2.33555,
2016-01-25, 17:31:04,VALID,916.984,VALID,0,VALID,75.9445,VALID,99.0607,VALID,23.0533,VALID,160,VALID,2.47227,
2016-01-25, 17:32:04,VALID,917.045,VALID,0,VALID,76.2265,VALID,98.631,VALID,23.0356,VALID,136,VALID,2.27305,
2016-01-25, 17:33:04,VALID,917.041,VALID,0,VALID,75.8225,VALID,94.3333,VALID,22.9948,VALID,166,VALID,1.44883,
2016-01-25, 17:34:04,VALID,917.068,VALID,0,VALID,76.1122,VALID,90.5729,VALID,23.0551,VALID,237,VALID,0.198828,
2016-01-25, 17:35:04,VALID,917.026,VALID,0,VALID,76.4476,VALID,89.0687,VALID,23.0356,VALID,118,VALID,2.29766,
2016-01-25, 17:36:04,VALID,917.075,VALID,0,VALID,76.0512,VALID,97.2342,VALID,22.9965,VALID,141,VALID,2.59844,
2016-01-25, 17:37:04,VALID,917.044,VALID,0,VALID,77.088,VALID,102.499,VALID,22.9575,VALID,163,VALID,1.86953,
2016-01-25, 17:38:04,VALID,917.059,VALID,0,VALID,77.2938,VALID,100.78,VALID,22.9753,VALID,129,VALID,0.00429688,
2016-01-25, 17:39:04,VALID,917.106,VALID,0,VALID,75.9902,VALID,98.5235,VALID,23.0143,VALID,170,VALID,0.766406,
2016-01-25, 17:40:04,VALID,917.073,VALID,0,VALID,76.5238,VALID,83.2669,VALID,23.0356,VALID,149,VALID,0.0195313,
2016-01-25, 17:41:04,VALID,917.085,VALID,0,VALID,76.8059,VALID,73.4897,VALID,23.0551,VALID,122,VALID,0.964844,
